Wind_Speed
40 40 40 42 43 45 47 48 50 48 45 44 42 40 39 37 35 32 33 35 39 39 41 39 58 65 52
44 45 45 45 47 48 49 50 51 51 51 50 46 44 43 40 40 39 37 36 37 39 44 44 45 43 64
49 50 51 52 53 53 54 56 57 57 55 55 55 55 53 49 47 45 44 43 41 43 41 45 46 44 49
54 55 56 57 58 58 59 61 61 62 63 62 61 60 60 60 58 53 48 48 47 47 45 46 46 44 40
61 62 63 63 64 65 65 65 66 66 67 68 68 69 69 66 66 64 63 56 51 50 49 46 49 48 53
66 68 71 72 71 70 70 69 67 70 71 70 72 72 73 75 76 75 71 68 67 61 55 50 48 52 52
71 74 74 73 72 73 73 75 75 73 74 72 73 75 78 79 80 81 82 80 75 72 71 62 55 51 56
78 78 79 79 78 78 80 81 81 81 81 78 80 76 77 79 81 83 85 86 85 82 78 76 67 62 55
83 84 86 87 89 88 89 88 86 86 87 88 88 86 85 87 90 89 88 89 87 86 86 83 78 72 66
90 89 90 90 89 91 91 92 91 91 93 92 93 96 97 92 91 91 94 93 90 89 85 86 82 77 67
94 94 93 93 93 92 92 95 96 95 95 94 93 89 89 101 87 81 83 83 83 81 82 79 78 75 69
96 97 97 98 95 91 88 91 94 95 92 91 87 87 87 83 89 76 74 73 71 68 69 69 68 69 65
99 95 93 93 90 91 91 89 87 90 96 94 87 90 87 81 74 68 61 60 62 62 66 64 64 62 60
98 96 94 96 96 97 97 93 92 93 97 93 90 90 85 80 80 75 73 69 66 60 62 63 60 60 52
99 98 98 97 97 98 98 96 94 92 94 92 89 89 86 83 79 78 75 73 71 58 56 59 57 55 52
100 99 96 93 94 95 92 88 87 89 87 78 72 73 75 77 79 76 75 74 61 55 51 56 54 54 53
95 91 91 94 95 91 88 86 79 77 75 72 69 66 65 64 61 64 62 60 59 53 49 51 49 51 55
Wind_Direction
288 287 287 288 289 289 290 291 293 296 297 296 295 292 290 288 289 292 294 297 293 286 283 288 268 252 270
284 284 285 285 285 287 288 288 287 288 288 287 287 289 290 288 288 286 285 287 290 294 284 282 274 281 269
283 284 284 286 286 286 286 286 286 285 286 285 286 287 286 285 285 286 287 287 288 291 295 294 283 281 281
282 282 281 282 282 283 285 285 284 285 287 287 286 286 284 285 284 282 283 284 285 285 286 287 297 274 272
281 280 282 283 284 284 283 283 283 283 283 284 287 288 287 287 286 284 286 284 281 282 282 281 282 286 281
282 284 287 288 289 288 287 286 286 285 282 286 283 284 286 288 288 287 285 284 285 281 280 280 277 280 282
284 288 289 289 288 288 290 289 289 288 284 284 286 285 286 288 287 286 286 286 286 285 283 280 277 275 277
288 290 290 291 292 293 294 295 294 293 290 286 289 285 288 290 288 286 286 286 285 285 283 282 280 278 273
287 289 291 292 293 293 295 294 293 294 296 293 293 294 294 295 295 290 286 285 286 286 284 282 282 278 276
288 289 290 291 292 293 294 295 296 294 295 296 296 296 295 294 294 292 289 287 285 285 283 278 278 277 274
288 288 288 289 290 292 293 294 295 297 296 295 296 296 294 292 290 286 285 284 284 283 282 279 275 271 269
287 287 287 287 290 291 293 295 297 297 294 291 293 293 293 293 288 280 276 275 276 275 274 271 269 265 259
284 286 287 287 288 290 293 292 292 291 291 291 290 291 292 286 276 275 277 272 271 271 270 270 269 267 259
286 286 288 288 291 291 292 290 289 289 289 287 284 286 282 277 275 275 279 281 282 271 264 262 262 263 257
287 287 287 288 288 288 287 287 287 287 283 279 277 278 278 277 274 276 278 276 281 267 261 256 255 259 259
286 286 285 283 284 284 283 282 284 284 282 276 275 273 273 272 274 273 274 275 270 267 264 254 253 254 250
284 284 283 283 284 283 281 281 280 279 278 276 275 273 272 270 267 271 272 269 267 266 265 255 252 248 241
Height
5757 5756 5755 5753 5751 5750 5749 5747 5746 5745 5743 5742 5740 5738 5736 5734 5732 5730 5730 5728 5726 5722 5722 5721 5721 5722 5726
5745 5743 5742 5742 5741 5739 5737 5736 5734 5733 5731 5731 5729 5727 5725 5724 5723 5721 5720 5719 5718 5715 5713 5713 5711 5711 5711
5733 5732 5730 5729 5727 5726 5725 5723 5721 5720 5719 5717 5715 5713 5714 5713 5711 5711 5710 5709 5707 5705 5703 5702 5699 5699 5697
5720 5718 5717 5715 5714 5713 5710 5708 5707 5705 5703 5700 5699 5699 5697 5696 5696 5698 5698 5697 5697 5696 5695 5693 5691 5690 5689
5702 5700 5699 5698 5697 5696 5695 5694 5690 5688 5689 5685 5683 5679 5679 5678 5678 5679 5679 5681 5682 5682 5683 5683 5681 5679 5679
5685 5683 5681 5679 5677 5677 5675 5674 5675 5670 5672 5667 5665 5664 5662 5658 5658 5659 5661 5663 5663 5667 5668 5669 5670 5668 5666
5668 5665 5663 5660 5659 5657 5654 5652 5650 5648 5649 5653 5646 5647 5643 5640 5639 5639 5638 5639 5642 5646 5647 5653 5654 5655 5654
5648 5644 5641 5638 5636 5635 5632 5631 5629 5624 5621 5629 5622 5629 5625 5620 5621 5620 5620 5618 5620 5622 5625 5629 5634 5638 5640
5628 5624 5620 5616 5613 5612 5608 5607 5607 5604 5598 5596 5597 5600 5602 5600 5598 5597 5599 5597 5599 5600 5601 5606 5610 5617 5621
5605 5603 5599 5593 5589 5586 5583 5582 5579 5580 5574 5572 5571 5567 5574 5580 5576 5573 5572 5574 5577 5576 5577 5581 5585 5591 5598
5581 5578 5574 5570 5566 5563 5560 5557 5557 5555 5548 5541 5548 5543 5538 5544 5556 5550 5546 5547 5549 5553 5549 5552 5557 5566 5573
5555 5553 5549 5545 5542 5540 5534 5532 5529 5529 5524 5517 5518 5513 5513 5518 5520 5526 5523 5524 5523 5524 5524 5526 5530 5536 5546
5527 5526 5523 5519 5517 5513 5509 5506 5504 5503 5498 5490 5486 5488 5485 5489 5493 5498 5498 5502 5501 5500 5502 5505 5509 5513 5520
5501 5498 5494 5492 5490 5486 5483 5478 5477 5475 5466 5462 5457 5457 5459 5462 5465 5472 5474 5471 5477 5478 5480 5484 5489 5492 5499
5472 5471 5468 5462 5460 5455 5452 5449 5445 5442 5442 5437 5431 5428 5430 5434 5440 5442 5447 5447 5450 5453 5457 5462 5469 5474 5478
5445 5440 5436 5431 5428 5425 5420 5416 5413 5414 5413 5410 5406 5406 5408 5411 5409 5417 5421 5423 5427 5431 5435 5439 5449 5454 5456
5412 5409 5404 5401 5397 5394 5391 5386 5385 5385 5386 5386 5383 5382 5384 5389 5395 5390 5395 5400 5404 5410 5413 5419 5426 5434 5438